This demonstration page uses our WeatherBlox Daily Observations layout. Learn more.

Left ArrowRight Arrow

47.50024, -111.30081

Hourly Observations for April 18, 2019

Temp ( °F °C ) Dew Point ( °F °C ) Humidity (%) Winds ( mph kmh ) Pressure ( in mb ) Visibility ( mi km ) Precip ( " mm )
12:53 am 00:53 Clear 40 4.4 29 -1.7 65 65 SW 14 22 30.17 1022 10 16 0.00 0.00
1:53 am 01:53 Clear 38 3.3 29 -1.7 70 70 SW 12 19 30.19 1023 10 16 0.00 0.00
2:53 am 02:53 Clear 38 3.3 29 -1.7 70 70 SW 10 17 30.19 1022 10 16 0.00 0.00
3:53 am 03:53 Clear 39 3.9 30 -1.1 70 70 SW 13 20 30.19 1022 10 16 0.00 0.00
4:53 am 04:53 Clear 37 2.8 29 -1.7 73 73 SW 12 19 30.21 1023 10 16 0.00 0.00
5:53 am 05:53 Clear 38 3.3 30 -1.1 73 73 SW 12 19 30.19 1023 10 16 0.00 0.00
6:53 am 06:53 Sunny 37 2.8 30 -1.1 76 76 SW 10 17 30.21 1023 10 16 0.00 0.00
7:53 am 07:53 Sunny 45 7.2 32 0 61 61 SSW 15 24 30.20 1023 10 16 0.00 0.00
8:53 am 08:53 Sunny 50 10 32 0 50 50 SW 18 30 30.21 1023 10 16 0.00 0.00
9:53 am 09:53 Sunny 55 12.8 33 0.6 44 44 SW 21 33 30.19 1022 10 16 0.00 0.00
10:53 am 10:53 Sunny 60 15.6 33 0.6 36 36 SW 21 33 30.17 1022 10 16 0.00 0.00
11:53 am 11:53 Sunny 62 16.7 33 0.6 34 34 WSW 20 31 30.15 1021 10 16 0.00 0.00
12:53 pm 12:53 Sunny 64 17.8 33 0.6 32 32 W 26 43 30.12 1020 10 16 0.00 0.00
1:53 pm 13:53 Sunny 67 19.4 34 1.1 30 30 WSW 24 39 30.09 1019 10 16 0.00 0.00
2:53 pm 14:53 Sunny 67 19.4 34 1.1 30 30 WSW 25 41 30.08 1019 10 16 0.00 0.00
3:53 pm 15:53 Mostly Cloudy 69 20.6 35 1.7 29 29 W 25 41 30.05 1018 10 16 0.00 0.00
4:53 pm 16:53 Sunny 67 19.4 35 1.7 31 31 W 26 43 30.06 1018 10 16 0.00 0.00
5:53 pm 17:53 Mostly Sunny 61 16.1 36 2.2 39 39 W 16 26 30.07 1018 10 16 0.00 0.00
6:53 pm 18:53 Mostly Sunny 58 14.4 37 2.8 46 46 SW 13 20 30.07 1018 10 16 0.00 0.00
7:53 pm 19:53 Mostly Cloudy 58 14.4 37 2.8 46 46 WSW 16 26 30.03 1017 10 16 0.00 0.00
8:53 pm 20:53 Mostly Clear 56 13.3 36 2.2 47 47 WSW 9 15 30.03 1017 10 16 0.00 0.00
9:53 pm 21:53 Clear 57 13.9 37 2.8 47 47 WSW 20 31 30.00 1016 10 16 0.00 0.00
10:53 pm 22:53 Clear 58 14.4 37 2.8 46 46 WSW 22 35 29.96 1015 10 16 0.00 0.00
11:53 pm 23:53 Clear 58 14.4 38 3.3 48 48 WSW 23 37 29.95 1014 10 16 0.00 0.00

Powered by AerisWeather